TimeEST,TemperatureF,Dew PointF,Humidity,Sea Level PressureIn,VisibilityMPH,Wind Direction,Wind SpeedMPH,Gust SpeedMPH,PrecipitationIn,Events,Conditions,WindDirDegrees,DateUTC
12:55 AM,34.0,19.9,56,30.26,10.0,NNW,9.2,-,N/A,,Clear,340,2012-12-05 05:55:00
1:55 AM,33.1,19.0,56,30.27,10.0,NNW,13.8,-,N/A,,Clear,330,2012-12-05 06:55:00
2:55 AM,30.9,19.0,61,30.32,10.0,North,8.1,-,N/A,,Clear,360,2012-12-05 07:55:00
3:55 AM,30.9,19.0,61,30.35,10.0,North,5.8,-,N/A,,Overcast,360,2012-12-05 08:55:00
4:55 AM,32.0,18.0,56,30.37,10.0,North,13.8,-,N/A,,Overcast,350,2012-12-05 09:55:00
5:55 AM,32.0,18.0,56,30.38,10.0,North,10.4,20.7,N/A,,Overcast,350,2012-12-05 10:55:00
6:55 AM,32.0,19.0,59,30.40,10.0,NNW,10.4,-,N/A,,Mostly Cloudy,340,2012-12-05 11:55:00
7:55 AM,32.0,18.0,56,30.42,10.0,North,4.6,-,N/A,,Overcast,360,2012-12-05 12:55:00
9:55 AM,33.1,19.0,56,30.45,10.0,North,6.9,-,N/A,,Overcast,10,2012-12-05 14:55:00
10:55 AM,35.1,19.0,52,30.45,10.0,NE,8.1,-,N/A,,Mostly Cloudy,50,2012-12-05 15:55:00
11:55 AM,36.0,19.9,52,30.43,10.0,NE,5.8,-,N/A,,Partly Cloudy,50,2012-12-05 16:55:00
12:55 PM,37.0,19.9,50,30.42,10.0,Calm,Calm,-,N/A,,Partly Cloudy,0,2012-12-05 17:55:00
1:55 PM,37.0,19.9,50,30.42,10.0,Calm,Calm,-,N/A,,Partly Cloudy,0,2012-12-05 18:55:00
2:55 PM,37.9,19.9,48,30.40,10.0,East,5.8,-,N/A,,Partly Cloudy,80,2012-12-05 19:55:00
3:55 PM,37.9,19.9,48,30.39,10.0,East,4.6,-,N/A,,Partly Cloudy,80,2012-12-05 20:55:00
4:55 PM,35.1,19.9,54,30.38,10.0,ESE,5.8,-,N/A,,Partly Cloudy,110,2012-12-05 21:55:00
5:55 PM,33.1,19.9,59,30.39,10.0,SSE,3.5,-,N/A,,Partly Cloudy,160,2012-12-05 22:55:00
6:55 PM,30.9,19.9,64,30.38,10.0,SSE,3.5,-,N/A,,Clear,150,2012-12-05 23:55:00
7:55 PM,28.0,19.9,72,30.37,10.0,ESE,4.6,-,N/A,,Clear,110,2012-12-06 00:55:00
8:55 PM,28.0,19.9,72,30.38,10.0,ESE,4.6,-,N/A,,Clear,120,2012-12-06 01:55:00
9:55 PM,28.9,21.0,72,30.33,10.0,SE,9.2,-,N/A,,Clear,130,2012-12-06 02:55:00
10:55 PM,28.0,21.0,75,30.32,10.0,ESE,6.9,-,N/A,,Clear,120,2012-12-06 03:55:00
11:55 PM,27.0,19.9,75,30.30,10.0,ESE,8.1,-,N/A,,Clear,120,2012-12-06 04:55:00